Weather History for KBAC - July, 2013

Change the Weather History Date:

Tuesday, July 23, 2013

  Actual Average (KJMS) Record (KJMS)
Temperature  
Mean Temperature 60 °F 70 °F  
Max Temperature 73 °F 83 °F 104 °F (1931)
Min Temperature 48 °F 58 °F 43 °F (1914)
Degree Days  
Heating Degree Days 4 0  
Month to date heating degree days 19  
Since 1 June heating degree days 116  
Since 1 July heating degree days 19  
Cooling Degree Days 0 6  
Month to date cooling degree days 127  
Year to date cooling degree days 227  
Since 1 June cooling degree days 207  
Growing Degree Days 10 (Base 50)    
Moisture  
Dew Point 53 °F    
Average Humidity 77    
Maximum Humidity 100    
Minimum Humidity 44    
Precipitation  
Precipitation 0.00 in 0.10 in 1.67 in (2008)
Month to date precipitation 2.67  
Year to date precipitation 11.41  
Sea Level Pressure  
Sea Level Pressure 30.04 in    
Wind  
Wind Speed 4 mph (North)    
Max Wind Speed 8 mph    
Max Gust Speed -    
Visibility 10 miles    
Events      
T = Trace of Precipitation, MM = Missing Value Source: NWS Daily Summary

Daily Weather History Graph

Daily Weather History Graph

Search for Another Location

Airport or City:

Trip Planner

Search our weather history database for the weather conditions in past years. The results will help you decide how hot, cold, wet, or windy it might be!

Date:

Astronomy

Jul. 23, 2013 Rise Set
Actual Time 6:01 AM CDT 9:15 PM CDT
Civil Twilight 5:24 AM CDT 9:51 PM CDT
Nautical Twilight 4:36 AM CDT 10:39 PM CDT
Astronomical Twilight 3:36 AM CDT 11:39 PM CDT
Moon 9:33 PM CDT (7/23) 7:20 AM CDT (7/23)
Length of Visible Light 16h 27m
Length of Day
15h 13m
Full, 99% of the Moon is Illuminated
Jul 23
Full
Jul 29
Last Quarter
Aug 6
New
Aug 14
First Quarter
Aug 20
Full

Hourly Weather History & Observations

Time (CDT) Temp. Dew Point Humidity Pressure Visibility Wind Dir Wind Speed Gust Speed Precip Events Conditions
12:15 AM 53.6 °F 53.6 °F 100% 29.99 in 10.0 mi NW 4.6 mph - N/A   Clear
12:35 AM 53.6 °F 53.6 °F 100% 30.00 in 10.0 mi NW 4.6 mph - N/A   Clear
12:55 AM 53.6 °F 53.6 °F 100% 30.00 in 10.0 mi NW 5.8 mph - N/A   Clear
1:15 AM 51.8 °F 51.8 °F 100% 30.00 in 10.0 mi NNW 5.8 mph - N/A   Clear
1:35 AM 51.8 °F 51.8 °F 100% 30.00 in 10.0 mi North 3.5 mph - N/A   Clear
1:55 AM 50.0 °F 50.0 °F 100% 30.00 in 10.0 mi North 3.5 mph - N/A   Clear
2:15 AM 50.0 °F 50.0 °F 100% 29.99 in 10.0 mi North 3.5 mph - N/A   Clear
2:35 AM 51.8 °F 51.8 °F 100% 30.00 in 10.0 mi Calm Calm - N/A   Clear
2:55 AM 50.0 °F 50.0 °F 100% 29.99 in 10.0 mi NNE 4.6 mph - N/A   Clear
3:15 AM 50.0 °F 50.0 °F 100% 29.98 in 0.8 mi Calm Calm - N/A   Mist
3:35 AM 48.2 °F 48.2 °F 100% 29.99 in 10.0 mi Calm Calm - N/A   Clear
3:55 AM 50.0 °F 50.0 °F 100% 29.99 in 10.0 mi North 4.6 mph - N/A   Clear
4:15 AM 50.0 °F 50.0 °F 100% 30.00 in 10.0 mi North 5.8 mph - N/A   Partly Cloudy
4:35 AM 50.0 °F 50.0 °F 100% 30.01 in 10.0 mi NW 4.6 mph - N/A   Clear
4:55 AM 50.0 °F 50.0 °F 100% 30.01 in 10.0 mi NNW 3.5 mph - N/A   Clear
5:15 AM 48.2 °F 48.2 °F 100% 30.02 in 10.0 mi WNW 5.8 mph - N/A   Clear
5:35 AM 50.0 °F 50.0 °F 100% 30.03 in 10.0 mi West 4.6 mph - N/A   Clear
5:55 AM 48.2 °F 48.2 °F 100% 30.03 in 10.0 mi Calm Calm - N/A   Clear
6:15 AM 50.0 °F 50.0 °F 100% 30.03 in 10.0 mi NNW 3.5 mph - N/A   Clear
6:35 AM 48.2 °F 48.2 °F 100% 30.03 in 10.0 mi NNW 4.6 mph - N/A   Clear
6:55 AM 50.0 °F 50.0 °F 100% 30.04 in 10.0 mi NNW 5.8 mph - N/A   Clear
7:15 AM 53.6 °F 53.6 °F 100% 30.05 in 10.0 mi NNW 5.8 mph - N/A   Clear
7:35 AM 55.4 °F 55.4 °F 100% 30.06 in 10.0 mi NW 5.8 mph - N/A   Clear
7:55 AM 55.4 °F 55.4 °F 100% 30.06 in 10.0 mi NE 3.5 mph - N/A   Scattered Clouds
8:15 AM 55.4 °F 55.4 °F 100% 30.05 in 10.0 mi NNE 3.5 mph - N/A   Partly Cloudy
8:35 AM 59.0 °F 59.0 °F 100% 30.06 in 10.0 mi NNE 4.6 mph - N/A   Clear
8:55 AM 59.0 °F 59.0 °F 100% 30.06 in 10.0 mi Calm Calm - N/A   Clear
9:15 AM 59.0 °F 59.0 °F 100% 30.05 in 10.0 mi NE 3.5 mph - N/A   Partly Cloudy
9:35 AM 60.8 °F 57.2 °F 88% 30.06 in 10.0 mi Calm Calm - N/A   Mostly Cloudy
9:55 AM 62.6 °F 55.4 °F 77% 30.07 in 10.0 mi Calm Calm - N/A   Scattered Clouds
10:15 AM 64.4 °F 53.6 °F 68% 30.07 in 10.0 mi Calm Calm - N/A   Clear
10:35 AM 64.4 °F 53.6 °F 68% 30.07 in 10.0 mi NNE 4.6 mph - N/A   Mostly Cloudy
10:55 AM 66.2 °F 53.6 °F 64% 30.07 in 10.0 mi North 5.8 mph - N/A   Mostly Cloudy
11:15 AM 64.4 °F 51.8 °F 64% 30.07 in 10.0 mi NE 5.8 mph - N/A   Partly Cloudy
11:35 AM 64.4 °F 53.6 °F 68% 30.08 in 10.0 mi East 4.6 mph - N/A   Clear
11:55 AM 68.0 °F 50.0 °F 52% 30.08 in 10.0 mi NE 6.9 mph - N/A   Partly Cloudy
12:15 PM 66.2 °F 51.8 °F 60% 30.08 in 10.0 mi NNE 3.5 mph - N/A   Mostly Cloudy
12:35 PM 66.2 °F 51.8 °F 60% 30.08 in 10.0 mi East 6.9 mph - N/A   Mostly Cloudy
12:55 PM 68.0 °F 53.6 °F 60% 30.08 in 10.0 mi Calm Calm - N/A   Mostly Cloudy
1:15 PM 68.0 °F 51.8 °F 56% 30.08 in 10.0 mi West 4.6 mph - N/A   Overcast
1:35 PM 68.0 °F 50.0 °F 52% 30.08 in 10.0 mi Calm Calm - N/A   Overcast
1:55 PM 68.0 °F 50.0 °F 52% 30.08 in 10.0 mi Calm Calm - N/A   Overcast
2:15 PM 68.0 °F 50.0 °F 52% 30.08 in 10.0 mi North 4.6 mph - N/A   Mostly Cloudy
2:35 PM 71.6 °F 50.0 °F 46% 30.08 in 10.0 mi NE 5.8 mph - N/A   Scattered Clouds
3:15 PM 71.6 °F 50.0 °F 46% 30.07 in 10.0 mi NW 8.1 mph - N/A   Overcast
3:35 PM 69.8 °F 50.0 °F 49% 30.07 in 10.0 mi North 5.8 mph - N/A   Overcast
3:55 PM 71.6 °F 50.0 °F 46% 30.07 in 10.0 mi NW 6.9 mph - N/A   Scattered Clouds
4:15 PM 71.6 °F 50.0 °F 46% 30.06 in 10.0 mi NNE 6.9 mph - N/A   Mostly Cloudy
4:35 PM 71.6 °F 50.0 °F 46% 30.06 in 10.0 mi North 6.9 mph - N/A   Mostly Cloudy
4:55 PM 73.4 °F 50.0 °F 44% 30.05 in 10.0 mi WNW 5.8 mph - N/A   Partly Cloudy
5:15 PM 71.6 °F 50.0 °F 46% 30.05 in 10.0 mi NNW 3.5 mph - N/A   Scattered Clouds
5:35 PM 69.8 °F 50.0 °F 49% 30.05 in 10.0 mi North 6.9 mph - N/A   Overcast
5:55 PM 69.8 °F 50.0 °F 49% 30.04 in 10.0 mi North 3.5 mph - N/A   Overcast
6:15 PM 71.6 °F 50.0 °F 46% 30.05 in 10.0 mi North 6.9 mph - N/A   Overcast
6:35 PM 69.8 °F 51.8 °F 53% 30.04 in 10.0 mi North 4.6 mph - N/A   Overcast
6:55 PM 69.8 °F 53.6 °F 56% 30.04 in 10.0 mi North 4.6 mph - N/A   Overcast
7:15 PM 68.0 °F 53.6 °F 60% 30.04 in 10.0 mi Calm Calm - N/A   Overcast
7:35 PM 68.0 °F 53.6 °F 60% 30.04 in 10.0 mi Calm Calm - N/A   Overcast
7:55 PM 68.0 °F 53.6 °F 60% 30.04 in 10.0 mi Calm Calm - N/A   Overcast
8:15 PM 68.0 °F 53.6 °F 60% 30.04 in 10.0 mi East 4.6 mph - N/A   Mostly Cloudy
8:35 PM 66.2 °F 53.6 °F 64% 30.04 in 10.0 mi East 3.5 mph - N/A   Partly Cloudy
8:55 PM 64.4 °F 53.6 °F 68% 30.04 in 10.0 mi East 4.6 mph - N/A   Clear
9:15 PM 64.4 °F 53.6 °F 68% 30.04 in 10.0 mi East 4.6 mph - N/A   Clear
9:35 PM 62.6 °F 55.4 °F 77% 30.04 in 10.0 mi East 5.8 mph - N/A   Clear
9:55 PM 62.6 °F 57.2 °F 82% 30.05 in 10.0 mi ESE 4.6 mph - N/A   Scattered Clouds
10:15 PM 62.6 °F 57.2 °F 82% 30.05 in 10.0 mi SE 4.6 mph - N/A   Partly Cloudy
10:35 PM 62.6 °F 55.4 °F 77% 30.05 in 10.0 mi ESE 3.5 mph - N/A   Clear
10:55 PM 62.6 °F 57.2 °F 82% 30.05 in 10.0 mi SSE 3.5 mph - N/A   Clear
11:15 PM 62.6 °F 57.2 °F 82% 30.06 in 10.0 mi South 3.5 mph - N/A   Partly Cloudy
11:35 PM 62.6 °F 57.2 °F 82% 30.06 in 10.0 mi South 3.5 mph - N/A   Mostly Cloudy
11:55 PM 62.6 °F 59.0 °F 88% 30.06 in 10.0 mi Calm Calm - N/A   Overcast